Showing default

FLOCK 4Q 23, 58307

Orbit data source: Space-Track

FLOCK 4Q 23, 58307 is a payload satellite owned by Planet (US) in SSO that was launched on Sat, 11 Nov 2023 UTC via an FALCON 9 launch vehicle from the Air Force Western Test Range (AFWTR). Payload-class satellites include a variety of spacecraft equipped with specific instruments for various scientific and technological missions. These include communications satellites like Starlink; space stations such as the ISS; scientific satellites like the Hubble; Earth observation satellites from companies like Planet Labs, Umbra, and HawkEye 360; GPS; miniature CubeSats for education and research; and military/defense satellites.

Loading next visibility...
Identifier
58307, 2023-174BD
Orbit
SSO
Country
Flag of USUS
Related business
Manufacturer
Planet
Mission
Non-operational Commercial Imaging
Bus & Motor
CUBESAT 3U, Unknown motor
Mass
5.7 kg wet, 5.7 kg dry
Launch date (UTC)
2023-11-11 (2 years ago)
Launch vehicle
FALCON 9
Launch site
Air Force Western Test Range (AFWTR)
Object type
Payload
Rocket body
Debris
Shape & HBR
Box + 2 Pan, 1.0 m
Radar Cross Section
0.072 m², Medium (>0.1 m² and < 1m²)

Expand to show TLE details & history
Last TLE update: 6 hours ago

TLE from 6 hours ago
0 FLOCK 4Q 23
1 58307U 23174BD  26126.80689102  .00116935  00000-0  12609-2 0  9996
2 58307  97.3917 219.5779 0006542 278.8747  81.1771 15.63268961139488
Epoch: 2026-05-06T19:21Z
TLE epoch observation values (Epoch: 2026-05-06T19:21:55.384Z)
Latitude
0.00003°
Longitude
64.43504°
Altitude
380.696 km
Speed
7.682 km/s
True Right ascension
14h 38m 18s
True Declination
0° 00' 00"
Sunlit
Object was in full shadow at epoch
Visualization orbit readout
Latitude
Unknown
Longitude
Unknown
Altitude
Unknown
Speed
Unknown
Apparent Right ascension
Unknown
Apparent Declination
Unknown
Sunlit
N/A
Visualization observer readout
Local Sidereal Time
09:18:44
Azimuth
Unknown
Elevation
Unknown
Doppler factor
Unknown
Orbital elements
Apogee altitude
379.548 km
Perigee altitude
370.712 km
Semi-major axis
6,753.267 km
Eccentricity
0.00065
Inclination
97.3917°
RAAN
219.5779°
Arg. of periapsis
278.8747°
True anomaly
81.25119°
Mean anomaly
81.1771°
Eccentric anomaly
81.21414°
Mean motion
3.91086 °/min
Orbital period
92.05 mins
BSTAR
0.0012609
Loading maneuver chart data...
Computing Atmospheric mass density...
Loading historical data...
Loading historical data...
Loading historical data...
Loading historical data...
Loading historical data...
Loading historical data...
Loading historical data...

Documentation

Showing up to 5 results
|